[[{"header":{"parameterUnit":"m.s-1","parameterCategory":1,"la1":30.2991,"la2":30.254,"lo1":-89.0895,"lo2":-89.0444,"dy":0.0017,"dx":0.0017,"nx":28,"ny":28,"refTime":"2025-06-13T03:00:00:Z","depth":0,"parameterNumber":2,"parameterNumberName":"U-component_of_WINDS"},"data":[0,0,0,0,0,0,0,0,0,0,0,0,0,0,0,0,0,0,0,0,0,0,0,0,0,0,0,0,0,0,0,0,0,0,0,0,0,0,0,0,0,0,0,0,0,0,0,0,0,0,0,0,0,0,0,0,0,0,-2.3068,-2.3069,0,-2.3181,-2.3182,-2.3183,-2.3216,-2.3216,-2.3215,-2.3214,-2.3329,-2.3332,-2.3336,0,0,0,0,0,0,0,0,0,0,0,0,0,-2.2882,-2.2885,-2.3068,-2.3069,-2.3071,-2.318,-2.3182,-2.3183,-2.3216,-2.3216,-2.3215,-2.3214,-2.3327,-2.3332,-2.3336,0,0,0,0,0,0,0,0,0,0,0,0,0,-2.2975,-2.2886,-2.3068,-2.31,-2.3105,-2.318,-2.3182,-2.3184,-2.3216,-2.3216,-2.3215,-2.3214,-2.3326,-2.3331,-2.3336,-2.3387,0,0,-2.3353,-2.3355,0,0,0,0,0,0,0,0,-2.297,-2.2982,-2.3094,-2.3098,-2.3103,-2.3183,-2.3158,-2.3252,-2.3217,-2.3174,-2.3214,-2.3213,-2.3281,-2.329,-2.3313,-2.3393,-2.3398,-2.3353,-2.3357,-2.3359,-2.336,0,0,0,0,0,0,0,-2.2964,-2.2978,-2.3113,-2.3096,-2.3101,-2.311,-2.3122,-2.3176,-2.3231,-2.3178,-2.318,-2.3193,-2.3283,-2.3308,-2.3316,-2.3399,-2.3353,-2.3358,-2.3361,-2.3363,-2.3527,-2.3528,0,0,0,0,0,0,-2.2952,-2.2972,-2.3109,-2.3116,-2.3033,-2.3114,-2.3127,-2.3158,-2.323,-2.3241,-2.3194,-2.3194,-2.3299,-2.331,-2.332,-2.3384,-2.3359,-2.3364,-2.3367,-2.3526,-2.3527,-2.3528,0,0,0,0,0,0,-2.2947,-2.2963,-2.3104,-2.3045,-2.3063,-2.3118,-2.3152,-2.3161,-2.3186,-2.3243,-2.3253,-2.3209,-2.3299,-2.3312,-2.3371,-2.3389,-2.3366,-2.3371,-2.3524,-2.3526,-2.3528,-2.3513,0,0,0,0,0,0,-2.2942,-2.2962,-2.2981,-2.3045,-2.3066,-2.3153,-2.3154,-2.3164,-2.3195,-2.3197,-2.3259,-2.3269,-2.3299,-2.3362,-2.3376,-2.3396,-2.3375,-2.3523,-2.3525,-2.3527,-2.3512,-2.3514,-2.3515,0,0,0,0,0,-2.2935,-2.2973,-2.2982,-2.2999,-2.3092,-2.3154,-2.3166,-2.32,-2.3196,-2.3217,-2.3254,-2.3267,-2.3385,-2.3368,-2.3383,-2.3405,-2.3522,-2.3525,-2.3527,-2.3511,-2.3513,-2.3515,0,0,0,0,0,0,-2.2909,-2.2981,-2.2993,-2.3052,-2.3097,-2.3159,-2.3186,-2.3202,-2.3248,-2.3248,-2.3288,-2.3302,-2.3357,-2.3387,-2.3367,-2.3458,-2.3454,-2.3459,-2.3436,-2.3439,-2.3441,-2.3432,-2.338,0,0,0,0,0,-2.2911,-2.2955,-2.3015,-2.3062,-2.3084,-2.3131,-2.3159,-2.3182,-2.3229,-2.3248,-2.3289,-2.3335,-2.3382,-2.3413,-2.3459,-2.3517,-2.3531,-2.354,-2.3541,-2.3543,-2.3547,-2.3579,-2.3584,-2.3537,-2.3537,-2.3536,0,0,-2.2913,-2.2958,-2.2984,-2.3058,-2.3095,-2.314,-2.3146,-2.3193,-2.3227,-2.3255,-2.3313,-2.3345,-2.3398,-2.3456,-2.3484,-2.3483,-2.3563,-2.3546,-2.3546,-2.355,-2.3583,-2.3587,-2.3591,-2.3538,-2.3538,-2.3538,0,0,-2.2941,-2.298,-2.3023,-2.306,-2.3117,-2.3148,-2.3158,-2.3219,-2.3241,-2.33,-2.3322,-2.3363,-2.3444,-2.3481,-2.3511,-2.3554,-2.3568,-2.3568,-2.3577,-2.3608,-2.3612,-2.3616,-2.3631,-2.3636,-2.3572,-2.3572,-2.3572,0,-2.2937,-2.3006,-2.3042,-2.3089,-2.3121,-2.3149,-2.3193,-2.3227,-2.3296,-2.3317,-2.3316,-2.3418,-2.3457,-2.3524,-2.3534,-2.3558,-2.3571,-2.3561,-2.3609,-2.3613,-2.3616,-2.3631,-2.3637,-2.3572,-2.3572,-2.3572,-2.3572,0,-2.2998,-2.3045,-2.3073,-2.3139,-2.3175,-2.3219,-2.3263,-2.3294,-2.3314,-2.3346,-2.3405,-2.3452,-2.3509,-2.3527,-2.3547,-2.3598,-2.3595,-2.3601,-2.3597,-2.362,-2.3634,-2.364,-2.3571,-2.3572,-2.3572,-2.3572,0,0,-2.3011,-2.3098,-2.3108,-2.3138,-2.3203,-2.324,-2.3287,-2.3343,-2.3369,-2.3416,-2.3455,-2.3524,-2.353,-2.3563,-2.3588,-2.3615,-2.3647,-2.3618,-2.362,-2.3621,-2.3705,-2.37,-2.3706,-2.3657,-2.3658,-2.3659,-2.37,0,-2.3047,-2.3131,-2.3165,-2.3233,-2.3277,-2.3305,-2.3346,-2.339,-2.3421,-2.3463,-2.3498,-2.3546,-2.355,-2.357,-2.3599,-2.3636,-2.3664,-2.3634,-2.3693,-2.3695,-2.3678,-2.3713,-2.3708,-2.3744,-2.3706,-2.3707,-2.3708,0,-2.3099,-2.3147,-2.3219,-2.3279,-2.3299,-2.3334,-2.3389,-2.3429,-2.348,-2.3501,-2.3539,-2.3562,-2.3612,-2.3606,-2.3675,-2.3654,-2.368,-2.3702,-2.3705,-2.3711,-2.3702,-2.3719,-2.3757,-2.3762,-2.3717,-2.3717,-2.3716,0,-2.3101,-2.3183,-2.3237,-2.3262,-2.3334,-2.3358,-2.3389,-2.344,-2.3471,-2.3519,-2.354,-2.3593,-2.3622,-2.3662,-2.3699,-2.3691,-2.3765,-2.3761,-2.3783,-2.3782,-2.3796,-2.3794,-2.3837,-2.3815,-2.3815,-2.3814,-2.3814,0,-2.3137,-2.3179,-2.3239,-2.3271,-2.332,-2.3361,-2.3408,-2.3441,-2.3486,-2.3525,-2.3554,-2.359,-2.3637,-2.368,-2.371,-2.3762,-2.3775,-2.3793,-2.38,-2.379,-2.3788,-2.3807,-2.3805,-2.3816,-2.3816,-2.3815,-2.3815,0,-2.3146,-2.3188,-2.3248,-2.3311,-2.3328,-2.3362,-2.3416,-2.3449,-2.3482,-2.3532,-2.3546,-2.3598,-2.365,-2.3691,-2.3759,-2.3779,-2.3834,-2.3842,-2.3816,-2.382,-2.3839,-2.3836,-2.3895,-2.3905,-2.3876,-2.3876,-2.3876,0,-2.3166,-2.3199,-2.3266,-2.3295,-2.3326,-2.3372,-2.3405,-2.3446,-2.3479,-2.354,-2.3566,-2.362,-2.3665,-2.3747,-2.3791,-2.3843,-2.3852,-2.3869,-2.386,-2.3849,-2.3852,-2.3849,-2.3852,-2.387,-2.387,-2.387,-2.387,0,-2.3196,-2.3215,-2.3261,-2.3314,-2.3353,-2.3397,-2.3441,-2.3463,-2.3513,-2.3548,-2.3602,-2.3637,-2.3707,-2.376,-2.3817,-2.3849,-2.3868,-2.3873,-2.388,-2.387,-2.3853,-2.3862,-2.3818,-2.3871,-2.3871,-2.3871,-2.3871,-2.3871,-2.3211,-2.3242,-2.3294,-2.3344,-2.3383,-2.3424,-2.3458,-2.3496,-2.3541,-2.3601,-2.3623,-2.3678,-2.3729,-2.3807,-2.384,-2.3884,-2.3885,-2.3896,-2.3899,-2.3901,-2.3899,-2.3847,-2.3894,-2.3894,-2.3894,-2.3894,-2.3894,0,-2.3242,-2.3277,-2.3323,-2.3385,-2.3424,-2.3439,-2.349,-2.3522,-2.357,-2.3616,-2.3661,-2.3723,-2.3775,-2.3823,-2.3877,-2.3903,-2.3913,-2.3916,-2.3914,-2.3921,-2.3895,-2.3883,-2.3907,-2.3907,-2.3907,-2.3907,-2.3907,-2.3907,-2.3262,-2.3316,-2.3341,-2.3414,-2.3449,-2.3504,-2.3531,-2.3569,-2.3606,-2.3674,-2.3718,-2.3749,-2.3796,-2.3854,-2.3903,-2.3916,-2.3934,-2.3934,-2.3949,-2.3924,-2.3922,-2.3921,-2.3909,-2.3938,-2.3938,-2.3971,-2.3971,-2.3972]},{"header":{"parameterUnit":"m.s-1","parameterCategory":1,"la1":30.2991,"la2":30.254,"lo1":-89.0895,"lo2":-89.0444,"dy":0.0017,"dx":0.0017,"nx":28,"ny":28,"refTime":"2025-06-13T03:00:00:Z","depth":0,"parameterNumber":3,"parameterNumberName":"V-component_of_WINDS"},"data":[0,0,0,0,0,0,0,0,0,0,0,0,0,0,0,0,0,0,0,0,0,0,0,0,0,0,0,0,0,0,0,0,0,0,0,0,0,0,0,0,0,0,0,0,0,0,0,0,0,0,0,0,0,0,0,0,0,0,5.4574,5.4574,0,5.4604,5.4604,5.4605,5.4522,5.4519,5.4517,5.4514,5.4543,5.4546,5.4549,0,0,0,0,0,0,0,0,0,0,0,0,0,5.444,5.4443,5.4574,5.4574,5.4574,5.4604,5.4604,5.4605,5.4522,5.4519,5.4516,5.4513,5.4542,5.4545,5.4549,0,0,0,0,0,0,0,0,0,0,0,0,0,5.4487,5.4444,5.4574,5.4537,5.4534,5.4604,5.4604,5.4605,5.4523,5.4519,5.4515,5.4511,5.454,5.4545,5.455,5.4656,0,0,5.4564,5.4566,0,0,0,0,0,0,0,0,5.4485,5.4492,5.4542,5.4539,5.4536,5.4555,5.4568,5.4622,5.4524,5.4527,5.4514,5.451,5.455,5.4553,5.4568,5.4657,5.4659,5.4565,5.4567,5.4569,5.4571,0,0,0,0,0,0,0,5.4481,5.449,5.4585,5.4543,5.4539,5.4517,5.452,5.4578,5.4559,5.4526,5.452,5.4525,5.4547,5.4563,5.4568,5.4659,5.4564,5.4569,5.4572,5.4573,5.4835,5.4839,0,0,0,0,0,0,5.4483,5.4488,5.4584,5.4586,5.45,5.4523,5.4526,5.4553,5.4559,5.4556,5.4529,5.4521,5.4557,5.4562,5.4568,5.4691,5.4569,5.4574,5.4577,5.4831,5.4836,5.484,0,0,0,0,0,0,5.4481,5.4493,5.4583,5.4536,5.4546,5.4529,5.4561,5.4556,5.4571,5.456,5.4556,5.4548,5.4554,5.4562,5.4634,5.4691,5.4576,5.458,5.4826,5.4832,5.4838,5.4939,0,0,0,0,0,0,5.4477,5.4492,5.4534,5.4537,5.4548,5.465,5.4564,5.4559,5.458,5.4571,5.4578,5.4575,5.4552,5.4628,5.4639,5.4695,5.4584,5.4821,5.4829,5.4836,5.4931,5.4948,5.4963,0,0,0,0,0,5.4473,5.4561,5.4536,5.4548,5.46,5.4654,5.466,5.4632,5.4585,5.4625,5.4618,5.4575,5.4684,5.4636,5.4648,5.4707,5.4817,5.4827,5.4835,5.4923,5.4944,5.4962,0,0,0,0,0,0,5.4563,5.4561,5.4533,5.4625,5.464,5.464,5.469,5.4656,5.4684,5.4674,5.4637,5.464,5.4719,5.472,5.4667,5.4809,5.4742,5.4754,5.4805,5.4825,5.484,5.4837,5.4588,0,0,0,0,0,5.4594,5.4639,5.4634,5.4716,5.4725,5.4706,5.4729,5.4706,5.472,5.4726,5.4724,5.4738,5.4775,5.48,5.4834,5.4931,5.493,5.4977,5.4993,5.5006,5.5017,5.5066,5.5086,5.4871,5.4871,5.487,0,0,5.4658,5.4662,5.4693,5.4734,5.4743,5.4789,5.4712,5.4765,5.4798,5.4733,5.4801,5.4801,5.4814,5.4899,5.4936,5.4903,5.5076,5.5018,5.5029,5.5032,5.5077,5.5098,5.5116,5.4877,5.4876,5.4875,0,0,5.4797,5.4806,5.4874,5.4884,5.4899,5.4886,5.4903,5.4907,5.4904,5.4972,5.4924,5.4963,5.5028,5.5039,5.5053,5.5196,5.5156,5.5208,5.5291,5.534,5.5357,5.5371,5.542,5.5438,5.5219,5.5219,5.5219,0,5.4874,5.4942,5.4912,5.4968,5.4986,5.4931,5.4998,5.501,5.5035,5.5048,5.5011,5.509,5.5096,5.5181,5.5216,5.523,5.5246,5.5206,5.5357,5.5371,5.5385,5.5431,5.5449,5.5225,5.5224,5.5224,5.5223,0,5.5035,5.5083,5.5136,5.5162,5.5186,5.5248,5.5226,5.5254,5.5229,5.522,5.5289,5.5293,5.5326,5.5345,5.5321,5.5427,5.5405,5.5363,5.5295,5.5412,5.5454,5.5472,5.5234,5.5231,5.523,5.5228,0,0,5.5231,5.5239,5.5259,5.5269,5.5281,5.5317,5.5375,5.5408,5.5432,5.5451,5.5497,5.5554,5.5514,5.553,5.5507,5.555,5.566,5.5502,5.5502,5.5529,5.5774,5.5804,5.5825,5.5635,5.5638,5.5641,5.5772,0,5.5367,5.5467,5.5441,5.554,5.5582,5.553,5.558,5.5592,5.5585,5.5619,5.5611,5.5651,5.5597,5.5606,5.5646,5.5638,5.5708,5.5629,5.5675,5.5678,5.5672,5.5848,5.588,5.6004,5.5789,5.5792,5.5794,0,5.5538,5.5564,5.5667,5.567,5.5687,5.5733,5.5759,5.5794,5.5806,5.5797,5.5816,5.5784,5.5839,5.5772,5.5847,5.5793,5.5811,5.581,5.5814,5.5816,5.5741,5.5852,5.6043,5.6061,5.582,5.5818,5.5816,0,5.5668,5.5728,5.5797,5.5808,5.5814,5.5847,5.5851,5.586,5.588,5.5904,5.5916,5.5946,5.5962,5.5985,5.5961,5.5915,5.6039,5.5971,5.6032,5.6032,5.6058,5.6057,5.6253,5.6074,5.6074,5.6074,5.6073,0,5.582,5.5885,5.5855,5.5898,5.5968,5.5937,5.6007,5.6005,5.6013,5.6052,5.601,5.6048,5.6015,5.605,5.6032,5.6095,5.6104,5.6097,5.6091,5.61,5.61,5.6109,5.6099,5.6078,5.6077,5.6076,5.6076,0,5.5977,5.596,5.6031,5.6031,5.6033,5.6084,5.6084,5.6122,5.6112,5.6162,5.6172,5.6156,5.6195,5.6174,5.6214,5.6202,5.6283,5.6267,5.6279,5.6274,5.6335,5.6329,5.6542,5.6567,5.6375,5.6377,5.6378,0,5.6074,5.6122,5.6128,5.6151,5.6158,5.6198,5.6218,5.619,5.6213,5.623,5.6266,5.6301,5.6327,5.6391,5.6382,5.6412,5.6394,5.6467,5.6398,5.6405,5.6392,5.6389,5.6393,5.648,5.6482,5.6484,5.6486,0,5.6248,5.6237,5.6269,5.6298,5.6324,5.6345,5.6363,5.6385,5.6356,5.6384,5.6423,5.6444,5.6484,5.6519,5.6545,5.6547,5.6511,5.6508,5.6523,5.6531,5.6535,5.6531,5.6314,5.6502,5.6501,5.6499,5.6499,5.6498,5.6376,5.6416,5.6425,5.6462,5.6472,5.6489,5.6525,5.6519,5.6551,5.6582,5.6563,5.6609,5.6618,5.6648,5.6656,5.669,5.6661,5.6684,5.6689,5.6694,5.6702,5.6532,5.6695,5.6695,5.6694,5.6694,5.6693,0,5.6546,5.6549,5.6583,5.6609,5.6637,5.6602,5.662,5.6645,5.6686,5.6698,5.6725,5.6769,5.6802,5.6796,5.6825,5.6854,5.6838,5.6862,5.6859,5.686,5.6727,5.671,5.6875,5.6875,5.6875,5.6875,5.6874,5.6874,5.6637,5.6702,5.6692,5.6761,5.6763,5.6808,5.682,5.6835,5.6844,5.6895,5.6923,5.6919,5.6923,5.6953,5.6981,5.6978,5.699,5.702,5.7011,5.6887,5.6869,5.6852,5.6835,5.7024,5.7024,5.714,5.7141,5.7142]}]]